Index of /20260509/WXO-DD/model_rdps/10km/06/050
Name Last modified Size Description
Parent Directory -
20260509T06Z_MSC_RDPS_AbsoluteVorticity_IsbL-0250_RLatLon0.09_PT050H.grib2 2026-05-09 09:00 617K
20260509T06Z_MSC_RDPS_AbsoluteVorticity_IsbL-0500_RLatLon0.09_PT050H.grib2 2026-05-09 09:00 576K
20260509T06Z_MSC_RDPS_AbsoluteVorticity_IsbL-0700_RLatLon0.09_PT050H.grib2 2026-05-09 09:00 622K
20260509T06Z_MSC_RDPS_AbsoluteVorticity_IsbL-0850_RLatLon0.09_PT050H.grib2 2026-05-09 09:00 783K
20260509T06Z_MSC_RDPS_AirTemp_AGL-120m_RLatLon0.09_PT050H.grib2 2026-05-09 09:00 377K
20260509T06Z_MSC_RDPS_AirTemp_AGL-2m_RLatLon0.09_PT050H.grib2 2026-05-09 09:00 626K
20260509T06Z_MSC_RDPS_AirTemp_AGL-40m_RLatLon0.09_PT050H.grib2 2026-05-09 09:00 391K
20260509T06Z_MSC_RDPS_AirTemp_AGL-80m_RLatLon0.09_PT050H.grib2 2026-05-09 09:00 383K
20260509T06Z_MSC_RDPS_AirTemp_IsbL-0001_RLatLon0.09_PT050H.grib2 2026-05-09 09:00 302K
20260509T06Z_MSC_RDPS_AirTemp_IsbL-0005_RLatLon0.09_PT050H.grib2 2026-05-09 09:00 291K
20260509T06Z_MSC_RDPS_AirTemp_IsbL-0010_RLatLon0.09_PT050H.grib2 2026-05-09 09:00 391K
20260509T06Z_MSC_RDPS_AirTemp_IsbL-0020_RLatLon0.09_PT050H.grib2 2026-05-09 09:00 320K
20260509T06Z_MSC_RDPS_AirTemp_IsbL-0030_RLatLon0.09_PT050H.grib2 2026-05-09 09:00 342K
20260509T06Z_MSC_RDPS_AirTemp_IsbL-0050_RLatLon0.09_PT050H.grib2 2026-05-09 09:00 311K
20260509T06Z_MSC_RDPS_AirTemp_IsbL-0100_RLatLon0.09_PT050H.grib2 2026-05-09 09:00 390K
20260509T06Z_MSC_RDPS_AirTemp_IsbL-0150_RLatLon0.09_PT050H.grib2 2026-05-09 09:00 403K
20260509T06Z_MSC_RDPS_AirTemp_IsbL-0175_RLatLon0.09_PT050H.grib2 2026-05-09 09:00 398K
20260509T06Z_MSC_RDPS_AirTemp_IsbL-0200_RLatLon0.09_PT050H.grib2 2026-05-09 09:00 405K
20260509T06Z_MSC_RDPS_AirTemp_IsbL-0225_RLatLon0.09_PT050H.grib2 2026-05-09 09:00 410K
20260509T06Z_MSC_RDPS_AirTemp_IsbL-0250_RLatLon0.09_PT050H.grib2 2026-05-09 09:00 423K
20260509T06Z_MSC_RDPS_AirTemp_IsbL-0275_RLatLon0.09_PT050H.grib2 2026-05-09 09:00 406K
20260509T06Z_MSC_RDPS_AirTemp_IsbL-0300_RLatLon0.09_PT050H.grib2 2026-05-09 09:00 412K
20260509T06Z_MSC_RDPS_AirTemp_IsbL-0350_RLatLon0.09_PT050H.grib2 2026-05-09 09:00 423K
20260509T06Z_MSC_RDPS_AirTemp_IsbL-0400_RLatLon0.09_PT050H.grib2 2026-05-09 09:00 427K
20260509T06Z_MSC_RDPS_AirTemp_IsbL-0450_RLatLon0.09_PT050H.grib2 2026-05-09 09:00 438K
20260509T06Z_MSC_RDPS_AirTemp_IsbL-0500_RLatLon0.09_PT050H.grib2 2026-05-09 09:00 448K
20260509T06Z_MSC_RDPS_AirTemp_IsbL-0550_RLatLon0.09_PT050H.grib2 2026-05-09 09:00 465K
20260509T06Z_MSC_RDPS_AirTemp_IsbL-0600_RLatLon0.09_PT050H.grib2 2026-05-09 09:00 484K
20260509T06Z_MSC_RDPS_AirTemp_IsbL-0650_RLatLon0.09_PT050H.grib2 2026-05-09 09:00 498K
20260509T06Z_MSC_RDPS_AirTemp_IsbL-0700_RLatLon0.09_PT050H.grib2 2026-05-09 09:00 521K
20260509T06Z_MSC_RDPS_AirTemp_IsbL-0750_RLatLon0.09_PT050H.grib2 2026-05-09 09:00 562K
20260509T06Z_MSC_RDPS_AirTemp_IsbL-0800_RLatLon0.09_PT050H.grib2 2026-05-09 09:00 579K
20260509T06Z_MSC_RDPS_AirTemp_IsbL-0850_RLatLon0.09_PT050H.grib2 2026-05-09 09:00 634K
20260509T06Z_MSC_RDPS_AirTemp_IsbL-0875_RLatLon0.09_PT050H.grib2 2026-05-09 09:00 650K
20260509T06Z_MSC_RDPS_AirTemp_IsbL-0900_RLatLon0.09_PT050H.grib2 2026-05-09 09:00 526K
20260509T06Z_MSC_RDPS_AirTemp_IsbL-0925_RLatLon0.09_PT050H.grib2 2026-05-09 09:00 524K
20260509T06Z_MSC_RDPS_AirTemp_IsbL-0950_RLatLon0.09_PT050H.grib2 2026-05-09 09:00 527K
20260509T06Z_MSC_RDPS_AirTemp_IsbL-0970_RLatLon0.09_PT050H.grib2 2026-05-09 09:00 523K
20260509T06Z_MSC_RDPS_AirTemp_IsbL-0985_RLatLon0.09_PT050H.grib2 2026-05-09 09:00 512K
20260509T06Z_MSC_RDPS_AirTemp_IsbL-1000_RLatLon0.09_PT050H.grib2 2026-05-09 09:00 493K
20260509T06Z_MSC_RDPS_AirTemp_IsbL-1015_RLatLon0.09_PT050H.grib2 2026-05-09 09:00 499K
20260509T06Z_MSC_RDPS_Albedo_Sfc_RLatLon0.09_PT050H.grib2 2026-05-09 09:00 159K
20260509T06Z_MSC_RDPS_CAPE_Sfc_RLatLon0.09_PT050H.grib2 2026-05-09 09:00 1.7M
20260509T06Z_MSC_RDPS_CIN_Sfc_RLatLon0.09_PT050H.grib2 2026-05-09 09:00 1.3M
20260509T06Z_MSC_RDPS_CloudWater_EAtm_RLatLon0.09_PT050H.grib2 2026-05-09 09:00 227K
20260509T06Z_MSC_RDPS_ConvectivePrecip-Accum_Sfc_RLatLon0.09_PT050H.grib2 2026-05-09 09:00 1.2M
20260509T06Z_MSC_RDPS_DewPointDepression_AGL-2m_RLatLon0.09_PT050H.grib2 2026-05-09 09:00 399K
20260509T06Z_MSC_RDPS_DewPointDepression_IsbL-0001_RLatLon0.09_PT050H.grib2 2026-05-09 09:00 193
20260509T06Z_MSC_RDPS_DewPointDepression_IsbL-0005_RLatLon0.09_PT050H.grib2 2026-05-09 09:00 193
20260509T06Z_MSC_RDPS_DewPointDepression_IsbL-0010_RLatLon0.09_PT050H.grib2 2026-05-09 09:00 193
20260509T06Z_MSC_RDPS_DewPointDepression_IsbL-0020_RLatLon0.09_PT050H.grib2 2026-05-09 09:00 193
20260509T06Z_MSC_RDPS_DewPointDepression_IsbL-0030_RLatLon0.09_PT050H.grib2 2026-05-09 09:00 193
20260509T06Z_MSC_RDPS_DewPointDepression_IsbL-0050_RLatLon0.09_PT050H.grib2 2026-05-09 09:00 107K
20260509T06Z_MSC_RDPS_DewPointDepression_IsbL-0100_RLatLon0.09_PT050H.grib2 2026-05-09 09:00 112K
20260509T06Z_MSC_RDPS_DewPointDepression_IsbL-0150_RLatLon0.09_PT050H.grib2 2026-05-09 09:00 143K
20260509T06Z_MSC_RDPS_DewPointDepression_IsbL-0175_RLatLon0.09_PT050H.grib2 2026-05-09 09:00 166K
20260509T06Z_MSC_RDPS_DewPointDepression_IsbL-0200_RLatLon0.09_PT050H.grib2 2026-05-09 09:00 213K
20260509T06Z_MSC_RDPS_DewPointDepression_IsbL-0225_RLatLon0.09_PT050H.grib2 2026-05-09 09:00 261K
20260509T06Z_MSC_RDPS_DewPointDepression_IsbL-0250_RLatLon0.09_PT050H.grib2 2026-05-09 09:00 304K
20260509T06Z_MSC_RDPS_DewPointDepression_IsbL-0275_RLatLon0.09_PT050H.grib2 2026-05-09 09:00 309K
20260509T06Z_MSC_RDPS_DewPointDepression_IsbL-0300_RLatLon0.09_PT050H.grib2 2026-05-09 09:00 325K
20260509T06Z_MSC_RDPS_DewPointDepression_IsbL-0350_RLatLon0.09_PT050H.grib2 2026-05-09 09:00 333K
20260509T06Z_MSC_RDPS_DewPointDepression_IsbL-0400_RLatLon0.09_PT050H.grib2 2026-05-09 09:00 347K
20260509T06Z_MSC_RDPS_DewPointDepression_IsbL-0450_RLatLon0.09_PT050H.grib2 2026-05-09 09:00 355K
20260509T06Z_MSC_RDPS_DewPointDepression_IsbL-0500_RLatLon0.09_PT050H.grib2 2026-05-09 09:00 354K
20260509T06Z_MSC_RDPS_DewPointDepression_IsbL-0550_RLatLon0.09_PT050H.grib2 2026-05-09 09:00 365K
20260509T06Z_MSC_RDPS_DewPointDepression_IsbL-0600_RLatLon0.09_PT050H.grib2 2026-05-09 09:00 379K
20260509T06Z_MSC_RDPS_DewPointDepression_IsbL-0650_RLatLon0.09_PT050H.grib2 2026-05-09 09:00 387K
20260509T06Z_MSC_RDPS_DewPointDepression_IsbL-0700_RLatLon0.09_PT050H.grib2 2026-05-09 09:00 393K
20260509T06Z_MSC_RDPS_DewPointDepression_IsbL-0750_RLatLon0.09_PT050H.grib2 2026-05-09 09:00 406K
20260509T06Z_MSC_RDPS_DewPointDepression_IsbL-0800_RLatLon0.09_PT050H.grib2 2026-05-09 09:00 444K
20260509T06Z_MSC_RDPS_DewPointDepression_IsbL-0850_RLatLon0.09_PT050H.grib2 2026-05-09 09:00 468K
20260509T06Z_MSC_RDPS_DewPointDepression_IsbL-0875_RLatLon0.09_PT050H.grib2 2026-05-09 09:00 462K
20260509T06Z_MSC_RDPS_DewPointDepression_IsbL-0900_RLatLon0.09_PT050H.grib2 2026-05-09 09:00 450K
20260509T06Z_MSC_RDPS_DewPointDepression_IsbL-0925_RLatLon0.09_PT050H.grib2 2026-05-09 09:00 438K
20260509T06Z_MSC_RDPS_DewPointDepression_IsbL-0950_RLatLon0.09_PT050H.grib2 2026-05-09 09:00 436K
20260509T06Z_MSC_RDPS_DewPointDepression_IsbL-0970_RLatLon0.09_PT050H.grib2 2026-05-09 09:00 434K
20260509T06Z_MSC_RDPS_DewPointDepression_IsbL-0985_RLatLon0.09_PT050H.grib2 2026-05-09 09:00 428K
20260509T06Z_MSC_RDPS_DewPointDepression_IsbL-1000_RLatLon0.09_PT050H.grib2 2026-05-09 09:00 422K
20260509T06Z_MSC_RDPS_DewPointDepression_IsbL-1015_RLatLon0.09_PT050H.grib2 2026-05-09 09:00 411K
20260509T06Z_MSC_RDPS_DewPoint_AGL-2m_RLatLon0.09_PT050H.grib2 2026-05-09 09:00 390K
20260509T06Z_MSC_RDPS_DownwardLongwaveRadiationFlux-Accum_Sfc_RLatLon0.09_PT050H.grib2 2026-05-09 09:00 375K
20260509T06Z_MSC_RDPS_DownwardShortwaveRadiationFlux-Accum_NTAtm_RLatLon0.09_PT050H.grib2 2026-05-09 09:00 140K
20260509T06Z_MSC_RDPS_DownwardShortwaveRadiationFlux-Accum_Sfc_RLatLon0.09_PT050H.grib2 2026-05-09 09:00 576K
20260509T06Z_MSC_RDPS_FreezingRain-Accum1h_Sfc_RLatLon0.09_PT050H.grib2 2026-05-09 09:00 38K
20260509T06Z_MSC_RDPS_FreezingRain-Accum_Sfc_RLatLon0.09_PT050H.grib2 2026-05-09 09:00 163K
20260509T06Z_MSC_RDPS_GeopotentialHeight_IsbL-0001_RLatLon0.09_PT050H.grib2 2026-05-09 09:00 243K
20260509T06Z_MSC_RDPS_GeopotentialHeight_IsbL-0005_RLatLon0.09_PT050H.grib2 2026-05-09 09:00 310K
20260509T06Z_MSC_RDPS_GeopotentialHeight_IsbL-0010_RLatLon0.09_PT050H.grib2 2026-05-09 09:00 311K
20260509T06Z_MSC_RDPS_GeopotentialHeight_IsbL-0020_RLatLon0.09_PT050H.grib2 2026-05-09 09:00 408K
20260509T06Z_MSC_RDPS_GeopotentialHeight_IsbL-0030_RLatLon0.09_PT050H.grib2 2026-05-09 09:00 313K
20260509T06Z_MSC_RDPS_GeopotentialHeight_IsbL-0050_RLatLon0.09_PT050H.grib2 2026-05-09 09:00 313K
20260509T06Z_MSC_RDPS_GeopotentialHeight_IsbL-0100_RLatLon0.09_PT050H.grib2 2026-05-09 09:00 285K
20260509T06Z_MSC_RDPS_GeopotentialHeight_IsbL-0150_RLatLon0.09_PT050H.grib2 2026-05-09 09:00 226K
20260509T06Z_MSC_RDPS_GeopotentialHeight_IsbL-0175_RLatLon0.09_PT050H.grib2 2026-05-09 09:00 228K
20260509T06Z_MSC_RDPS_GeopotentialHeight_IsbL-0200_RLatLon0.09_PT050H.grib2 2026-05-09 09:00 231K
20260509T06Z_MSC_RDPS_GeopotentialHeight_IsbL-0225_RLatLon0.09_PT050H.grib2 2026-05-09 09:00 232K
20260509T06Z_MSC_RDPS_GeopotentialHeight_IsbL-0250_RLatLon0.09_PT050H.grib2 2026-05-09 09:00 234K
20260509T06Z_MSC_RDPS_GeopotentialHeight_IsbL-0275_RLatLon0.09_PT050H.grib2 2026-05-09 09:00 234K
20260509T06Z_MSC_RDPS_GeopotentialHeight_IsbL-0300_RLatLon0.09_PT050H.grib2 2026-05-09 09:00 233K
20260509T06Z_MSC_RDPS_GeopotentialHeight_IsbL-0350_RLatLon0.09_PT050H.grib2 2026-05-09 09:00 231K
20260509T06Z_MSC_RDPS_GeopotentialHeight_IsbL-0400_RLatLon0.09_PT050H.grib2 2026-05-09 09:00 228K
20260509T06Z_MSC_RDPS_GeopotentialHeight_IsbL-0450_RLatLon0.09_PT050H.grib2 2026-05-09 09:00 296K
20260509T06Z_MSC_RDPS_GeopotentialHeight_IsbL-0500_RLatLon0.09_PT050H.grib2 2026-05-09 09:00 291K
20260509T06Z_MSC_RDPS_GeopotentialHeight_IsbL-0550_RLatLon0.09_PT050H.grib2 2026-05-09 09:00 287K
20260509T06Z_MSC_RDPS_GeopotentialHeight_IsbL-0600_RLatLon0.09_PT050H.grib2 2026-05-09 09:00 283K
20260509T06Z_MSC_RDPS_GeopotentialHeight_IsbL-0650_RLatLon0.09_PT050H.grib2 2026-05-09 09:00 255K
20260509T06Z_MSC_RDPS_GeopotentialHeight_IsbL-0700_RLatLon0.09_PT050H.grib2 2026-05-09 09:00 254K
20260509T06Z_MSC_RDPS_GeopotentialHeight_IsbL-0750_RLatLon0.09_PT050H.grib2 2026-05-09 09:00 256K
20260509T06Z_MSC_RDPS_GeopotentialHeight_IsbL-0800_RLatLon0.09_PT050H.grib2 2026-05-09 09:00 349K
20260509T06Z_MSC_RDPS_GeopotentialHeight_IsbL-0850_RLatLon0.09_PT050H.grib2 2026-05-09 09:00 359K
20260509T06Z_MSC_RDPS_GeopotentialHeight_IsbL-0875_RLatLon0.09_PT050H.grib2 2026-05-09 09:00 358K
20260509T06Z_MSC_RDPS_GeopotentialHeight_IsbL-0900_RLatLon0.09_PT050H.grib2 2026-05-09 09:00 363K
20260509T06Z_MSC_RDPS_GeopotentialHeight_IsbL-0925_RLatLon0.09_PT050H.grib2 2026-05-09 09:00 366K
20260509T06Z_MSC_RDPS_GeopotentialHeight_IsbL-0950_RLatLon0.09_PT050H.grib2 2026-05-09 09:00 368K
20260509T06Z_MSC_RDPS_GeopotentialHeight_IsbL-0970_RLatLon0.09_PT050H.grib2 2026-05-09 09:00 372K
20260509T06Z_MSC_RDPS_GeopotentialHeight_IsbL-0985_RLatLon0.09_PT050H.grib2 2026-05-09 09:00 381K
20260509T06Z_MSC_RDPS_GeopotentialHeight_IsbL-1000_RLatLon0.09_PT050H.grib2 2026-05-09 09:00 394K
20260509T06Z_MSC_RDPS_GeopotentialHeight_IsbL-1015_RLatLon0.09_PT050H.grib2 2026-05-09 09:00 410K
20260509T06Z_MSC_RDPS_HighLowPressure_MSL_RLatLon0.09_PT050H.json 2026-05-09 08:50 17K
20260509T06Z_MSC_RDPS_Humidex_Sfc_RLatLon0.09_PT050H.grib2 2026-05-09 09:00 2.4M
20260509T06Z_MSC_RDPS_IcePellets-Accum1h_Sfc_RLatLon0.09_PT050H.grib2 2026-05-09 09:00 11K
20260509T06Z_MSC_RDPS_IcePellets-Accum_Sfc_RLatLon0.09_PT050H.grib2 2026-05-09 09:00 36K
20260509T06Z_MSC_RDPS_KIndex_Sfc_RLatLon0.09_PT050H.grib2 2026-05-09 09:00 2.5M
20260509T06Z_MSC_RDPS_LatentHeatNetFlux_Sfc_RLatLon0.09_PT050H.grib2 2026-05-09 09:00 327K
20260509T06Z_MSC_RDPS_LiftedIndex-MU-VT_IsbL-0500_RLatLon0.09_PT050H.grib2 2026-05-09 09:00 2.4M
20260509T06Z_MSC_RDPS_NetLongwaveRadiationFlux-Accum_Sfc_RLatLon0.09_PT050H.grib2 2026-05-09 09:00 553K
20260509T06Z_MSC_RDPS_NetShortwaveRadiationFlux-Accum_Sfc_RLatLon0.09_PT050H.grib2 2026-05-09 09:00 574K
20260509T06Z_MSC_RDPS_PlanetaryBoundaryLayerHeight_Sfc_RLatLon0.09_PT050H.grib2 2026-05-09 09:00 1.1M
20260509T06Z_MSC_RDPS_Precip-Accum1h_Sfc_RLatLon0.09_PT050H.grib2 2026-05-09 09:00 1.3M
20260509T06Z_MSC_RDPS_Precip-Accum_Sfc_RLatLon0.09_PT050H.grib2 2026-05-09 09:00 2.0M
20260509T06Z_MSC_RDPS_PrecipRate_Sfc_RLatLon0.09_PT050H.grib2 2026-05-09 09:00 193K
20260509T06Z_MSC_RDPS_PrecipType-Instant_Sfc_RLatLon0.09_PT050H.grib2 2026-05-09 09:00 636K
20260509T06Z_MSC_RDPS_Pressure-Trend3h_Sfc_RLatLon0.09_PT050H.grib2 2026-05-09 09:00 1.2M
20260509T06Z_MSC_RDPS_Pressure_MSL_RLatLon0.09_PT050H.grib2 2026-05-09 09:00 324K
20260509T06Z_MSC_RDPS_Pressure_PVU-1.5_RLatLon0.09_PT050H.grib2 2026-05-09 09:00 2.5M
20260509T06Z_MSC_RDPS_Pressure_PVU-1_RLatLon0.09_PT050H.grib2 2026-05-09 09:00 2.4M
20260509T06Z_MSC_RDPS_Pressure_PVU-2_RLatLon0.09_PT050H.grib2 2026-05-09 09:00 2.4M
20260509T06Z_MSC_RDPS_Pressure_Sfc_RLatLon0.09_PT050H.grib2 2026-05-09 09:00 499K
20260509T06Z_MSC_RDPS_RadiativeTemp_Sfc_RLatLon0.09_PT050H.grib2 2026-05-09 09:00 393K
20260509T06Z_MSC_RDPS_Rain-Accum1h_Sfc_RLatLon0.09_PT050H.grib2 2026-05-09 09:00 681K
20260509T06Z_MSC_RDPS_Rain-Accum_Sfc_RLatLon0.09_PT050H.grib2 2026-05-09 09:00 1.8M
20260509T06Z_MSC_RDPS_RelativeHumidity_AGL-2m_RLatLon0.09_PT050H.grib2 2026-05-09 09:00 1.0M
20260509T06Z_MSC_RDPS_RelativeHumidity_IsbL-0010_RLatLon0.09_PT050H.grib2 2026-05-09 09:00 579K
20260509T06Z_MSC_RDPS_RelativeHumidity_IsbL-0020_RLatLon0.09_PT050H.grib2 2026-05-09 09:00 637K
20260509T06Z_MSC_RDPS_RelativeHumidity_IsbL-0030_RLatLon0.09_PT050H.grib2 2026-05-09 09:00 627K
20260509T06Z_MSC_RDPS_RelativeHumidity_IsbL-0050_RLatLon0.09_PT050H.grib2 2026-05-09 09:00 353K
20260509T06Z_MSC_RDPS_RelativeHumidity_IsbL-0100_RLatLon0.09_PT050H.grib2 2026-05-09 09:00 274K
20260509T06Z_MSC_RDPS_RelativeHumidity_IsbL-0150_RLatLon0.09_PT050H.grib2 2026-05-09 09:00 410K
20260509T06Z_MSC_RDPS_RelativeHumidity_IsbL-0175_RLatLon0.09_PT050H.grib2 2026-05-09 09:00 469K
20260509T06Z_MSC_RDPS_RelativeHumidity_IsbL-0200_RLatLon0.09_PT050H.grib2 2026-05-09 09:00 542K
20260509T06Z_MSC_RDPS_RelativeHumidity_IsbL-0225_RLatLon0.09_PT050H.grib2 2026-05-09 09:00 621K
20260509T06Z_MSC_RDPS_RelativeHumidity_IsbL-0250_RLatLon0.09_PT050H.grib2 2026-05-09 09:00 703K
20260509T06Z_MSC_RDPS_RelativeHumidity_IsbL-0275_RLatLon0.09_PT050H.grib2 2026-05-09 09:00 731K
20260509T06Z_MSC_RDPS_RelativeHumidity_IsbL-0300_RLatLon0.09_PT050H.grib2 2026-05-09 09:00 771K
20260509T06Z_MSC_RDPS_RelativeHumidity_IsbL-0350_RLatLon0.09_PT050H.grib2 2026-05-09 09:00 784K
20260509T06Z_MSC_RDPS_RelativeHumidity_IsbL-0400_RLatLon0.09_PT050H.grib2 2026-05-09 09:00 804K
20260509T06Z_MSC_RDPS_RelativeHumidity_IsbL-0450_RLatLon0.09_PT050H.grib2 2026-05-09 09:00 814K
20260509T06Z_MSC_RDPS_RelativeHumidity_IsbL-0500_RLatLon0.09_PT050H.grib2 2026-05-09 09:00 824K
20260509T06Z_MSC_RDPS_RelativeHumidity_IsbL-0550_RLatLon0.09_PT050H.grib2 2026-05-09 09:00 840K
20260509T06Z_MSC_RDPS_RelativeHumidity_IsbL-0600_RLatLon0.09_PT050H.grib2 2026-05-09 09:00 854K
20260509T06Z_MSC_RDPS_RelativeHumidity_IsbL-0650_RLatLon0.09_PT050H.grib2 2026-05-09 09:00 868K
20260509T06Z_MSC_RDPS_RelativeHumidity_IsbL-0700_RLatLon0.09_PT050H.grib2 2026-05-09 09:00 892K
20260509T06Z_MSC_RDPS_RelativeHumidity_IsbL-0750_RLatLon0.09_PT050H.grib2 2026-05-09 09:00 929K
20260509T06Z_MSC_RDPS_RelativeHumidity_IsbL-0800_RLatLon0.09_PT050H.grib2 2026-05-09 09:00 1.0M
20260509T06Z_MSC_RDPS_RelativeHumidity_IsbL-0850_RLatLon0.09_PT050H.grib2 2026-05-09 09:00 1.0M
20260509T06Z_MSC_RDPS_RelativeHumidity_IsbL-0875_RLatLon0.09_PT050H.grib2 2026-05-09 09:00 1.0M
20260509T06Z_MSC_RDPS_RelativeHumidity_IsbL-0900_RLatLon0.09_PT050H.grib2 2026-05-09 09:00 1.0M
20260509T06Z_MSC_RDPS_RelativeHumidity_IsbL-0925_RLatLon0.09_PT050H.grib2 2026-05-09 09:00 1.0M
20260509T06Z_MSC_RDPS_RelativeHumidity_IsbL-0950_RLatLon0.09_PT050H.grib2 2026-05-09 09:00 1.1M
20260509T06Z_MSC_RDPS_RelativeHumidity_IsbL-0970_RLatLon0.09_PT050H.grib2 2026-05-09 09:00 1.1M
20260509T06Z_MSC_RDPS_RelativeHumidity_IsbL-0985_RLatLon0.09_PT050H.grib2 2026-05-09 09:00 1.0M
20260509T06Z_MSC_RDPS_RelativeHumidity_IsbL-1000_RLatLon0.09_PT050H.grib2 2026-05-09 09:00 1.0M
20260509T06Z_MSC_RDPS_RelativeHumidity_IsbL-1015_RLatLon0.09_PT050H.grib2 2026-05-09 09:00 1.0M
20260509T06Z_MSC_RDPS_Runoff-Accum_Sfc_RLatLon0.09_PT050H.grib2 2026-05-09 09:00 42K
20260509T06Z_MSC_RDPS_SWEATIndex_Sfc_RLatLon0.09_PT050H.grib2 2026-05-09 09:00 2.5M
20260509T06Z_MSC_RDPS_SeeingIndex_EAtm_RLatLon0.09_PT050H.grib2 2026-05-09 09:00 1.1M
20260509T06Z_MSC_RDPS_SensibleHeatNetFlux_Sfc_RLatLon0.09_PT050H.grib2 2026-05-09 09:00 215K
20260509T06Z_MSC_RDPS_ShowalterIndex_IsbL-0500_RLatLon0.09_PT050H.grib2 2026-05-09 09:00 2.6M
20260509T06Z_MSC_RDPS_SkyTransparencyIndex_EAtm_RLatLon0.09_PT050H.grib2 2026-05-09 09:00 691K
20260509T06Z_MSC_RDPS_Snow-Accum1h_Sfc_RLatLon0.09_PT050H.grib2 2026-05-09 09:00 487K
20260509T06Z_MSC_RDPS_Snow-Accum_Sfc_RLatLon0.09_PT050H.grib2 2026-05-09 09:00 640K
20260509T06Z_MSC_RDPS_SnowDensity_Sfc_RLatLon0.09_PT050H.grib2 2026-05-09 09:00 168K
20260509T06Z_MSC_RDPS_SnowDepth_Sfc_RLatLon0.09_PT050H.grib2 2026-05-09 09:00 618K
20260509T06Z_MSC_RDPS_SoilTemp_DBS-0to10cm_RLatLon0.09_PT050H.grib2 2026-05-09 09:00 236K
20260509T06Z_MSC_RDPS_SoilTemp_Sfc_RLatLon0.09_PT050H.grib2 2026-05-09 09:00 265K
20260509T06Z_MSC_RDPS_SoilVolumetricIceContent_Sfc_RLatLon0.09_PT050H.grib2 2026-05-09 09:00 141K
20260509T06Z_MSC_RDPS_SoilVolumetricWaterContent_DBS-0to10cm_RLatLon0.09_PT050H.grib2 2026-05-09 09:00 293K
20260509T06Z_MSC_RDPS_SoilVolumetricWaterContent_DBS-0to1cm_RLatLon0.09_PT050H.grib2 2026-05-09 09:00 347K
20260509T06Z_MSC_RDPS_SpecificHumidity_AGL-120m_RLatLon0.09_PT050H.grib2 2026-05-09 09:00 500K
20260509T06Z_MSC_RDPS_SpecificHumidity_AGL-2m_RLatLon0.09_PT050H.grib2 2026-05-09 09:00 669K
20260509T06Z_MSC_RDPS_SpecificHumidity_AGL-40m_RLatLon0.09_PT050H.grib2 2026-05-09 09:00 505K
20260509T06Z_MSC_RDPS_SpecificHumidity_AGL-80m_RLatLon0.09_PT050H.grib2 2026-05-09 09:00 501K
20260509T06Z_MSC_RDPS_SpecificHumidity_IsbL-0001_RLatLon0.09_PT050H.grib2 2026-05-09 09:00 354K
20260509T06Z_MSC_RDPS_SpecificHumidity_IsbL-0005_RLatLon0.09_PT050H.grib2 2026-05-09 09:00 367K
20260509T06Z_MSC_RDPS_SpecificHumidity_IsbL-0010_RLatLon0.09_PT050H.grib2 2026-05-09 09:00 394K
20260509T06Z_MSC_RDPS_SpecificHumidity_IsbL-0020_RLatLon0.09_PT050H.grib2 2026-05-09 09:00 383K
20260509T06Z_MSC_RDPS_SpecificHumidity_IsbL-0030_RLatLon0.09_PT050H.grib2 2026-05-09 09:00 371K
20260509T06Z_MSC_RDPS_SpecificHumidity_IsbL-0050_RLatLon0.09_PT050H.grib2 2026-05-09 09:00 482K
20260509T06Z_MSC_RDPS_SpecificHumidity_IsbL-0100_RLatLon0.09_PT050H.grib2 2026-05-09 09:00 403K
20260509T06Z_MSC_RDPS_SpecificHumidity_IsbL-0150_RLatLon0.09_PT050H.grib2 2026-05-09 09:00 440K
20260509T06Z_MSC_RDPS_SpecificHumidity_IsbL-0175_RLatLon0.09_PT050H.grib2 2026-05-09 09:00 431K
20260509T06Z_MSC_RDPS_SpecificHumidity_IsbL-0200_RLatLon0.09_PT050H.grib2 2026-05-09 09:00 453K
20260509T06Z_MSC_RDPS_SpecificHumidity_IsbL-0225_RLatLon0.09_PT050H.grib2 2026-05-09 09:00 463K
20260509T06Z_MSC_RDPS_SpecificHumidity_IsbL-0250_RLatLon0.09_PT050H.grib2 2026-05-09 09:00 531K
20260509T06Z_MSC_RDPS_SpecificHumidity_IsbL-0275_RLatLon0.09_PT050H.grib2 2026-05-09 09:00 491K
20260509T06Z_MSC_RDPS_SpecificHumidity_IsbL-0300_RLatLon0.09_PT050H.grib2 2026-05-09 09:00 462K
20260509T06Z_MSC_RDPS_SpecificHumidity_IsbL-0350_RLatLon0.09_PT050H.grib2 2026-05-09 09:00 455K
20260509T06Z_MSC_RDPS_SpecificHumidity_IsbL-0400_RLatLon0.09_PT050H.grib2 2026-05-09 09:00 543K
20260509T06Z_MSC_RDPS_SpecificHumidity_IsbL-0450_RLatLon0.09_PT050H.grib2 2026-05-09 09:00 598K
20260509T06Z_MSC_RDPS_SpecificHumidity_IsbL-0500_RLatLon0.09_PT050H.grib2 2026-05-09 09:00 530K
20260509T06Z_MSC_RDPS_SpecificHumidity_IsbL-0550_RLatLon0.09_PT050H.grib2 2026-05-09 09:00 603K
20260509T06Z_MSC_RDPS_SpecificHumidity_IsbL-0600_RLatLon0.09_PT050H.grib2 2026-05-09 09:00 659K
20260509T06Z_MSC_RDPS_SpecificHumidity_IsbL-0650_RLatLon0.09_PT050H.grib2 2026-05-09 09:00 577K
20260509T06Z_MSC_RDPS_SpecificHumidity_IsbL-0700_RLatLon0.09_PT050H.grib2 2026-05-09 09:00 617K
20260509T06Z_MSC_RDPS_SpecificHumidity_IsbL-0750_RLatLon0.09_PT050H.grib2 2026-05-09 09:00 667K
20260509T06Z_MSC_RDPS_SpecificHumidity_IsbL-0800_RLatLon0.09_PT050H.grib2 2026-05-09 09:00 751K
20260509T06Z_MSC_RDPS_SpecificHumidity_IsbL-0850_RLatLon0.09_PT050H.grib2 2026-05-09 09:00 818K
20260509T06Z_MSC_RDPS_SpecificHumidity_IsbL-0875_RLatLon0.09_PT050H.grib2 2026-05-09 09:00 835K
20260509T06Z_MSC_RDPS_SpecificHumidity_IsbL-0900_RLatLon0.09_PT050H.grib2 2026-05-09 09:00 843K
20260509T06Z_MSC_RDPS_SpecificHumidity_IsbL-0925_RLatLon0.09_PT050H.grib2 2026-05-09 09:00 845K
20260509T06Z_MSC_RDPS_SpecificHumidity_IsbL-0950_RLatLon0.09_PT050H.grib2 2026-05-09 09:00 851K
20260509T06Z_MSC_RDPS_SpecificHumidity_IsbL-0970_RLatLon0.09_PT050H.grib2 2026-05-09 09:00 848K
20260509T06Z_MSC_RDPS_SpecificHumidity_IsbL-0985_RLatLon0.09_PT050H.grib2 2026-05-09 09:00 697K
20260509T06Z_MSC_RDPS_SpecificHumidity_IsbL-1000_RLatLon0.09_PT050H.grib2 2026-05-09 09:00 691K
20260509T06Z_MSC_RDPS_SpecificHumidity_IsbL-1015_RLatLon0.09_PT050H.grib2 2026-05-09 09:00 683K
20260509T06Z_MSC_RDPS_SpecificHumidity_Sfc_RLatLon0.09_PT050H.grib2 2026-05-09 09:00 311K
20260509T06Z_MSC_RDPS_StormRelativeHelicity_EtaL-10000_RLatLon0.09_PT050H.grib2 2026-05-09 09:00 1.1M
20260509T06Z_MSC_RDPS_StormSeverityIndex_EtaL-10000_RLatLon0.09_PT050H.grib2 2026-05-09 09:00 1.2M
20260509T06Z_MSC_RDPS_Thickness_IsbL-0850to0700_RLatLon0.09_PT050H.grib2 2026-05-09 09:00 249K
20260509T06Z_MSC_RDPS_Thickness_IsbL-1000to0500_RLatLon0.09_PT050H.grib2 2026-05-09 09:00 193K
20260509T06Z_MSC_RDPS_Thickness_IsbL-1000to0850_RLatLon0.09_PT050H.grib2 2026-05-09 09:00 260K
20260509T06Z_MSC_RDPS_TotalCloudCover_Sfc_RLatLon0.09_PT050H.grib2 2026-05-09 09:00 682K
20260509T06Z_MSC_RDPS_TotalTotalsIndex_Sfc_RLatLon0.09_PT050H.grib2 2026-05-09 09:00 2.4M
20260509T06Z_MSC_RDPS_UVIndex-ClearSky_Sfc_RLatLon0.09_PT050H.grib2 2026-05-09 09:00 110K
20260509T06Z_MSC_RDPS_UVIndex_Sfc_RLatLon0.09_PT050H.grib2 2026-05-09 09:00 201K
20260509T06Z_MSC_RDPS_UpwardLongwaveRadiationFlux_NTAtm_RLatLon0.09_PT050H.grib2 2026-05-09 09:00 495K
20260509T06Z_MSC_RDPS_UpwardShortwaveRadiationFlux_NTAtm_RLatLon0.09_PT050H.grib2 2026-05-09 09:00 161K
20260509T06Z_MSC_RDPS_VerticalVelocity_IsbL-0250_RLatLon0.09_PT050H.grib2 2026-05-09 09:00 565K
20260509T06Z_MSC_RDPS_VerticalVelocity_IsbL-0500_RLatLon0.09_PT050H.grib2 2026-05-09 09:00 541K
20260509T06Z_MSC_RDPS_VerticalVelocity_IsbL-0700_RLatLon0.09_PT050H.grib2 2026-05-09 09:00 553K
20260509T06Z_MSC_RDPS_VerticalVelocity_IsbL-0850_RLatLon0.09_PT050H.grib2 2026-05-09 09:00 526K
20260509T06Z_MSC_RDPS_VerticalWindShear_EtaL-6500_RLatLon0.09_PT050H.grib2 2026-05-09 09:00 1.2M
20260509T06Z_MSC_RDPS_WindChill_Sfc_RLatLon0.09_PT050H.grib2 2026-05-09 09:00 1.2M
20260509T06Z_MSC_RDPS_WindDir_AGL-10m_RLatLon0.09_PT050H.grib2 2026-05-09 09:00 1.0M
20260509T06Z_MSC_RDPS_WindDir_AGL-120m_RLatLon0.09_PT050H.grib2 2026-05-09 09:00 614K
20260509T06Z_MSC_RDPS_WindDir_AGL-40m_RLatLon0.09_PT050H.grib2 2026-05-09 09:00 647K
20260509T06Z_MSC_RDPS_WindDir_AGL-80m_RLatLon0.09_PT050H.grib2 2026-05-09 09:00 627K
20260509T06Z_MSC_RDPS_WindDir_IsbL-0001_RLatLon0.09_PT050H.grib2 2026-05-09 09:00 288K
20260509T06Z_MSC_RDPS_WindDir_IsbL-0005_RLatLon0.09_PT050H.grib2 2026-05-09 09:00 389K
20260509T06Z_MSC_RDPS_WindDir_IsbL-0010_RLatLon0.09_PT050H.grib2 2026-05-09 09:00 406K
20260509T06Z_MSC_RDPS_WindDir_IsbL-0020_RLatLon0.09_PT050H.grib2 2026-05-09 09:00 455K
20260509T06Z_MSC_RDPS_WindDir_IsbL-0030_RLatLon0.09_PT050H.grib2 2026-05-09 09:00 446K
20260509T06Z_MSC_RDPS_WindDir_IsbL-0050_RLatLon0.09_PT050H.grib2 2026-05-09 09:00 452K
20260509T06Z_MSC_RDPS_WindDir_IsbL-0100_RLatLon0.09_PT050H.grib2 2026-05-09 09:00 437K
20260509T06Z_MSC_RDPS_WindDir_IsbL-0150_RLatLon0.09_PT050H.grib2 2026-05-09 09:00 427K
20260509T06Z_MSC_RDPS_WindDir_IsbL-0175_RLatLon0.09_PT050H.grib2 2026-05-09 09:00 448K
20260509T06Z_MSC_RDPS_WindDir_IsbL-0200_RLatLon0.09_PT050H.grib2 2026-05-09 09:00 459K
20260509T06Z_MSC_RDPS_WindDir_IsbL-0225_RLatLon0.09_PT050H.grib2 2026-05-09 09:00 462K
20260509T06Z_MSC_RDPS_WindDir_IsbL-0250_RLatLon0.09_PT050H.grib2 2026-05-09 09:00 463K
20260509T06Z_MSC_RDPS_WindDir_IsbL-0275_RLatLon0.09_PT050H.grib2 2026-05-09 09:00 488K
20260509T06Z_MSC_RDPS_WindDir_IsbL-0300_RLatLon0.09_PT050H.grib2 2026-05-09 09:00 488K
20260509T06Z_MSC_RDPS_WindDir_IsbL-0350_RLatLon0.09_PT050H.grib2 2026-05-09 09:00 512K
20260509T06Z_MSC_RDPS_WindDir_IsbL-0400_RLatLon0.09_PT050H.grib2 2026-05-09 09:00 540K
20260509T06Z_MSC_RDPS_WindDir_IsbL-0450_RLatLon0.09_PT050H.grib2 2026-05-09 09:00 558K
20260509T06Z_MSC_RDPS_WindDir_IsbL-0500_RLatLon0.09_PT050H.grib2 2026-05-09 09:00 577K
20260509T06Z_MSC_RDPS_WindDir_IsbL-0550_RLatLon0.09_PT050H.grib2 2026-05-09 09:00 587K
20260509T06Z_MSC_RDPS_WindDir_IsbL-0600_RLatLon0.09_PT050H.grib2 2026-05-09 09:00 607K
20260509T06Z_MSC_RDPS_WindDir_IsbL-0650_RLatLon0.09_PT050H.grib2 2026-05-09 09:00 641K
20260509T06Z_MSC_RDPS_WindDir_IsbL-0700_RLatLon0.09_PT050H.grib2 2026-05-09 09:00 677K
20260509T06Z_MSC_RDPS_WindDir_IsbL-0750_RLatLon0.09_PT050H.grib2 2026-05-09 09:00 717K
20260509T06Z_MSC_RDPS_WindDir_IsbL-0800_RLatLon0.09_PT050H.grib2 2026-05-09 09:00 783K
20260509T06Z_MSC_RDPS_WindDir_IsbL-0850_RLatLon0.09_PT050H.grib2 2026-05-09 09:00 857K
20260509T06Z_MSC_RDPS_WindDir_IsbL-0875_RLatLon0.09_PT050H.grib2 2026-05-09 09:00 883K
20260509T06Z_MSC_RDPS_WindDir_IsbL-0900_RLatLon0.09_PT050H.grib2 2026-05-09 09:00 905K
20260509T06Z_MSC_RDPS_WindDir_IsbL-0925_RLatLon0.09_PT050H.grib2 2026-05-09 09:00 921K
20260509T06Z_MSC_RDPS_WindDir_IsbL-0950_RLatLon0.09_PT050H.grib2 2026-05-09 09:00 926K
20260509T06Z_MSC_RDPS_WindDir_IsbL-0970_RLatLon0.09_PT050H.grib2 2026-05-09 09:00 926K
20260509T06Z_MSC_RDPS_WindDir_IsbL-0985_RLatLon0.09_PT050H.grib2 2026-05-09 09:00 937K
20260509T06Z_MSC_RDPS_WindDir_IsbL-1000_RLatLon0.09_PT050H.grib2 2026-05-09 09:00 957K
20260509T06Z_MSC_RDPS_WindDir_IsbL-1015_RLatLon0.09_PT050H.grib2 2026-05-09 09:00 1.0M
20260509T06Z_MSC_RDPS_WindGust-Max_AGL-10m_RLatLon0.09_PT050H.grib2 2026-05-09 09:00 965K
20260509T06Z_MSC_RDPS_WindGust-Min_AGL-10m_RLatLon0.09_PT050H.grib2 2026-05-09 09:00 1.0M
20260509T06Z_MSC_RDPS_WindGust_AGL-10m_RLatLon0.09_PT050H.grib2 2026-05-09 09:00 1.0M
20260509T06Z_MSC_RDPS_WindSpeed_AGL-10m_RLatLon0.09_PT050H.grib2 2026-05-09 09:00 847K
20260509T06Z_MSC_RDPS_WindSpeed_AGL-120m_RLatLon0.09_PT050H.grib2 2026-05-09 09:00 556K
20260509T06Z_MSC_RDPS_WindSpeed_AGL-40m_RLatLon0.09_PT050H.grib2 2026-05-09 09:00 547K
20260509T06Z_MSC_RDPS_WindSpeed_AGL-80m_RLatLon0.09_PT050H.grib2 2026-05-09 09:00 556K
20260509T06Z_MSC_RDPS_WindSpeed_IsbL-0001_RLatLon0.09_PT050H.grib2 2026-05-09 09:00 254K
20260509T06Z_MSC_RDPS_WindSpeed_IsbL-0005_RLatLon0.09_PT050H.grib2 2026-05-09 09:00 357K
20260509T06Z_MSC_RDPS_WindSpeed_IsbL-0010_RLatLon0.09_PT050H.grib2 2026-05-09 09:00 402K
20260509T06Z_MSC_RDPS_WindSpeed_IsbL-0020_RLatLon0.09_PT050H.grib2 2026-05-09 09:00 329K
20260509T06Z_MSC_RDPS_WindSpeed_IsbL-0030_RLatLon0.09_PT050H.grib2 2026-05-09 09:00 322K
20260509T06Z_MSC_RDPS_WindSpeed_IsbL-0050_RLatLon0.09_PT050H.grib2 2026-05-09 09:00 347K
20260509T06Z_MSC_RDPS_WindSpeed_IsbL-0100_RLatLon0.09_PT050H.grib2 2026-05-09 09:00 472K
20260509T06Z_MSC_RDPS_WindSpeed_IsbL-0150_RLatLon0.09_PT050H.grib2 2026-05-09 09:00 370K
20260509T06Z_MSC_RDPS_WindSpeed_IsbL-0175_RLatLon0.09_PT050H.grib2 2026-05-09 09:00 418K
20260509T06Z_MSC_RDPS_WindSpeed_IsbL-0200_RLatLon0.09_PT050H.grib2 2026-05-09 09:00 433K
20260509T06Z_MSC_RDPS_WindSpeed_IsbL-0225_RLatLon0.09_PT050H.grib2 2026-05-09 09:00 441K
20260509T06Z_MSC_RDPS_WindSpeed_IsbL-0250_RLatLon0.09_PT050H.grib2 2026-05-09 09:00 446K
20260509T06Z_MSC_RDPS_WindSpeed_IsbL-0275_RLatLon0.09_PT050H.grib2 2026-05-09 09:00 467K
20260509T06Z_MSC_RDPS_WindSpeed_IsbL-0300_RLatLon0.09_PT050H.grib2 2026-05-09 09:00 467K
20260509T06Z_MSC_RDPS_WindSpeed_IsbL-0350_RLatLon0.09_PT050H.grib2 2026-05-09 09:00 476K
20260509T06Z_MSC_RDPS_WindSpeed_IsbL-0400_RLatLon0.09_PT050H.grib2 2026-05-09 09:00 482K
20260509T06Z_MSC_RDPS_WindSpeed_IsbL-0450_RLatLon0.09_PT050H.grib2 2026-05-09 09:00 469K
20260509T06Z_MSC_RDPS_WindSpeed_IsbL-0500_RLatLon0.09_PT050H.grib2 2026-05-09 09:00 469K
20260509T06Z_MSC_RDPS_WindSpeed_IsbL-0550_RLatLon0.09_PT050H.grib2 2026-05-09 09:00 587K
20260509T06Z_MSC_RDPS_WindSpeed_IsbL-0600_RLatLon0.09_PT050H.grib2 2026-05-09 09:00 596K
20260509T06Z_MSC_RDPS_WindSpeed_IsbL-0650_RLatLon0.09_PT050H.grib2 2026-05-09 09:00 614K
20260509T06Z_MSC_RDPS_WindSpeed_IsbL-0700_RLatLon0.09_PT050H.grib2 2026-05-09 09:00 680K
20260509T06Z_MSC_RDPS_WindSpeed_IsbL-0750_RLatLon0.09_PT050H.grib2 2026-05-09 09:00 665K
20260509T06Z_MSC_RDPS_WindSpeed_IsbL-0800_RLatLon0.09_PT050H.grib2 2026-05-09 09:00 716K
20260509T06Z_MSC_RDPS_WindSpeed_IsbL-0850_RLatLon0.09_PT050H.grib2 2026-05-09 09:00 773K
20260509T06Z_MSC_RDPS_WindSpeed_IsbL-0875_RLatLon0.09_PT050H.grib2 2026-05-09 09:00 838K
20260509T06Z_MSC_RDPS_WindSpeed_IsbL-0900_RLatLon0.09_PT050H.grib2 2026-05-09 09:00 854K
20260509T06Z_MSC_RDPS_WindSpeed_IsbL-0925_RLatLon0.09_PT050H.grib2 2026-05-09 09:00 868K
20260509T06Z_MSC_RDPS_WindSpeed_IsbL-0950_RLatLon0.09_PT050H.grib2 2026-05-09 09:00 869K
20260509T06Z_MSC_RDPS_WindSpeed_IsbL-0970_RLatLon0.09_PT050H.grib2 2026-05-09 09:00 862K
20260509T06Z_MSC_RDPS_WindSpeed_IsbL-0985_RLatLon0.09_PT050H.grib2 2026-05-09 09:00 856K
20260509T06Z_MSC_RDPS_WindSpeed_IsbL-1000_RLatLon0.09_PT050H.grib2 2026-05-09 09:00 852K
20260509T06Z_MSC_RDPS_WindSpeed_IsbL-1015_RLatLon0.09_PT050H.grib2 2026-05-09 09:00 847K
20260509T06Z_MSC_RDPS_WindU_AGL-10m_RLatLon0.09_PT050H.grib2 2026-05-09 09:00 436K
20260509T06Z_MSC_RDPS_WindU_AGL-120m_RLatLon0.09_PT050H.grib2 2026-05-09 09:00 424K
20260509T06Z_MSC_RDPS_WindU_AGL-40m_RLatLon0.09_PT050H.grib2 2026-05-09 09:00 544K
20260509T06Z_MSC_RDPS_WindU_AGL-80m_RLatLon0.09_PT050H.grib2 2026-05-09 09:00 542K
20260509T06Z_MSC_RDPS_WindU_IsbL-0001_RLatLon0.09_PT050H.grib2 2026-05-09 09:00 293K
20260509T06Z_MSC_RDPS_WindU_IsbL-0005_RLatLon0.09_PT050H.grib2 2026-05-09 09:00 288K
20260509T06Z_MSC_RDPS_WindU_IsbL-0010_RLatLon0.09_PT050H.grib2 2026-05-09 09:00 298K
20260509T06Z_MSC_RDPS_WindU_IsbL-0020_RLatLon0.09_PT050H.grib2 2026-05-09 09:00 356K
20260509T06Z_MSC_RDPS_WindU_IsbL-0030_RLatLon0.09_PT050H.grib2 2026-05-09 09:00 353K
20260509T06Z_MSC_RDPS_WindU_IsbL-0050_RLatLon0.09_PT050H.grib2 2026-05-09 09:00 341K
20260509T06Z_MSC_RDPS_WindU_IsbL-0100_RLatLon0.09_PT050H.grib2 2026-05-09 09:00 428K
20260509T06Z_MSC_RDPS_WindU_IsbL-0150_RLatLon0.09_PT050H.grib2 2026-05-09 09:00 388K
20260509T06Z_MSC_RDPS_WindU_IsbL-0175_RLatLon0.09_PT050H.grib2 2026-05-09 09:00 412K
20260509T06Z_MSC_RDPS_WindU_IsbL-0200_RLatLon0.09_PT050H.grib2 2026-05-09 09:00 427K
20260509T06Z_MSC_RDPS_WindU_IsbL-0225_RLatLon0.09_PT050H.grib2 2026-05-09 09:00 434K
20260509T06Z_MSC_RDPS_WindU_IsbL-0250_RLatLon0.09_PT050H.grib2 2026-05-09 09:00 437K
20260509T06Z_MSC_RDPS_WindU_IsbL-0275_RLatLon0.09_PT050H.grib2 2026-05-09 09:00 356K
20260509T06Z_MSC_RDPS_WindU_IsbL-0300_RLatLon0.09_PT050H.grib2 2026-05-09 09:00 354K
20260509T06Z_MSC_RDPS_WindU_IsbL-0350_RLatLon0.09_PT050H.grib2 2026-05-09 09:00 464K
20260509T06Z_MSC_RDPS_WindU_IsbL-0400_RLatLon0.09_PT050H.grib2 2026-05-09 09:00 471K
20260509T06Z_MSC_RDPS_WindU_IsbL-0450_RLatLon0.09_PT050H.grib2 2026-05-09 09:00 475K
20260509T06Z_MSC_RDPS_WindU_IsbL-0500_RLatLon0.09_PT050H.grib2 2026-05-09 09:00 475K
20260509T06Z_MSC_RDPS_WindU_IsbL-0550_RLatLon0.09_PT050H.grib2 2026-05-09 09:00 458K
20260509T06Z_MSC_RDPS_WindU_IsbL-0600_RLatLon0.09_PT050H.grib2 2026-05-09 09:00 466K
20260509T06Z_MSC_RDPS_WindU_IsbL-0650_RLatLon0.09_PT050H.grib2 2026-05-09 09:00 483K
20260509T06Z_MSC_RDPS_WindU_IsbL-0700_RLatLon0.09_PT050H.grib2 2026-05-09 09:00 504K
20260509T06Z_MSC_RDPS_WindU_IsbL-0750_RLatLon0.09_PT050H.grib2 2026-05-09 09:00 531K
20260509T06Z_MSC_RDPS_WindU_IsbL-0800_RLatLon0.09_PT050H.grib2 2026-05-09 09:00 577K
20260509T06Z_MSC_RDPS_WindU_IsbL-0850_RLatLon0.09_PT050H.grib2 2026-05-09 09:00 628K
20260509T06Z_MSC_RDPS_WindU_IsbL-0875_RLatLon0.09_PT050H.grib2 2026-05-09 09:00 644K
20260509T06Z_MSC_RDPS_WindU_IsbL-0900_RLatLon0.09_PT050H.grib2 2026-05-09 09:00 656K
20260509T06Z_MSC_RDPS_WindU_IsbL-0925_RLatLon0.09_PT050H.grib2 2026-05-09 09:00 665K
20260509T06Z_MSC_RDPS_WindU_IsbL-0950_RLatLon0.09_PT050H.grib2 2026-05-09 09:00 664K
20260509T06Z_MSC_RDPS_WindU_IsbL-0970_RLatLon0.09_PT050H.grib2 2026-05-09 09:00 799K
20260509T06Z_MSC_RDPS_WindU_IsbL-0985_RLatLon0.09_PT050H.grib2 2026-05-09 09:00 792K
20260509T06Z_MSC_RDPS_WindU_IsbL-1000_RLatLon0.09_PT050H.grib2 2026-05-09 09:00 789K
20260509T06Z_MSC_RDPS_WindU_IsbL-1015_RLatLon0.09_PT050H.grib2 2026-05-09 09:00 786K
20260509T06Z_MSC_RDPS_WindV_AGL-10m_RLatLon0.09_PT050H.grib2 2026-05-09 09:00 431K
20260509T06Z_MSC_RDPS_WindV_AGL-120m_RLatLon0.09_PT050H.grib2 2026-05-09 09:00 536K
20260509T06Z_MSC_RDPS_WindV_AGL-40m_RLatLon0.09_PT050H.grib2 2026-05-09 09:00 538K
20260509T06Z_MSC_RDPS_WindV_AGL-80m_RLatLon0.09_PT050H.grib2 2026-05-09 09:00 537K
20260509T06Z_MSC_RDPS_WindV_IsbL-0001_RLatLon0.09_PT050H.grib2 2026-05-09 09:00 247K
20260509T06Z_MSC_RDPS_WindV_IsbL-0005_RLatLon0.09_PT050H.grib2 2026-05-09 09:00 377K
20260509T06Z_MSC_RDPS_WindV_IsbL-0010_RLatLon0.09_PT050H.grib2 2026-05-09 09:00 299K
20260509T06Z_MSC_RDPS_WindV_IsbL-0020_RLatLon0.09_PT050H.grib2 2026-05-09 09:00 319K
20260509T06Z_MSC_RDPS_WindV_IsbL-0030_RLatLon0.09_PT050H.grib2 2026-05-09 09:00 315K
20260509T06Z_MSC_RDPS_WindV_IsbL-0050_RLatLon0.09_PT050H.grib2 2026-05-09 09:00 340K
20260509T06Z_MSC_RDPS_WindV_IsbL-0100_RLatLon0.09_PT050H.grib2 2026-05-09 09:00 424K
20260509T06Z_MSC_RDPS_WindV_IsbL-0150_RLatLon0.09_PT050H.grib2 2026-05-09 09:00 387K
20260509T06Z_MSC_RDPS_WindV_IsbL-0175_RLatLon0.09_PT050H.grib2 2026-05-09 09:00 411K
20260509T06Z_MSC_RDPS_WindV_IsbL-0200_RLatLon0.09_PT050H.grib2 2026-05-09 09:00 329K
20260509T06Z_MSC_RDPS_WindV_IsbL-0225_RLatLon0.09_PT050H.grib2 2026-05-09 09:00 334K
20260509T06Z_MSC_RDPS_WindV_IsbL-0250_RLatLon0.09_PT050H.grib2 2026-05-09 09:00 336K
20260509T06Z_MSC_RDPS_WindV_IsbL-0275_RLatLon0.09_PT050H.grib2 2026-05-09 09:00 354K
20260509T06Z_MSC_RDPS_WindV_IsbL-0300_RLatLon0.09_PT050H.grib2 2026-05-09 09:00 352K
20260509T06Z_MSC_RDPS_WindV_IsbL-0350_RLatLon0.09_PT050H.grib2 2026-05-09 09:00 360K
20260509T06Z_MSC_RDPS_WindV_IsbL-0400_RLatLon0.09_PT050H.grib2 2026-05-09 09:00 468K
20260509T06Z_MSC_RDPS_WindV_IsbL-0450_RLatLon0.09_PT050H.grib2 2026-05-09 09:00 470K
20260509T06Z_MSC_RDPS_WindV_IsbL-0500_RLatLon0.09_PT050H.grib2 2026-05-09 09:00 472K
20260509T06Z_MSC_RDPS_WindV_IsbL-0550_RLatLon0.09_PT050H.grib2 2026-05-09 09:00 472K
20260509T06Z_MSC_RDPS_WindV_IsbL-0600_RLatLon0.09_PT050H.grib2 2026-05-09 09:00 479K
20260509T06Z_MSC_RDPS_WindV_IsbL-0650_RLatLon0.09_PT050H.grib2 2026-05-09 09:00 478K
20260509T06Z_MSC_RDPS_WindV_IsbL-0700_RLatLon0.09_PT050H.grib2 2026-05-09 09:00 499K
20260509T06Z_MSC_RDPS_WindV_IsbL-0750_RLatLon0.09_PT050H.grib2 2026-05-09 09:00 525K
20260509T06Z_MSC_RDPS_WindV_IsbL-0800_RLatLon0.09_PT050H.grib2 2026-05-09 09:00 570K
20260509T06Z_MSC_RDPS_WindV_IsbL-0850_RLatLon0.09_PT050H.grib2 2026-05-09 09:00 622K
20260509T06Z_MSC_RDPS_WindV_IsbL-0875_RLatLon0.09_PT050H.grib2 2026-05-09 09:00 638K
20260509T06Z_MSC_RDPS_WindV_IsbL-0900_RLatLon0.09_PT050H.grib2 2026-05-09 09:00 650K
20260509T06Z_MSC_RDPS_WindV_IsbL-0925_RLatLon0.09_PT050H.grib2 2026-05-09 09:00 660K
20260509T06Z_MSC_RDPS_WindV_IsbL-0950_RLatLon0.09_PT050H.grib2 2026-05-09 09:00 658K
20260509T06Z_MSC_RDPS_WindV_IsbL-0970_RLatLon0.09_PT050H.grib2 2026-05-09 09:00 793K
20260509T06Z_MSC_RDPS_WindV_IsbL-0985_RLatLon0.09_PT050H.grib2 2026-05-09 09:00 788K
20260509T06Z_MSC_RDPS_WindV_IsbL-1000_RLatLon0.09_PT050H.grib2 2026-05-09 09:00 830K
20260509T06Z_MSC_RDPS_WindV_IsbL-1015_RLatLon0.09_PT050H.grib2 2026-05-09 09:00 824K